Weather Roundup
Issued by NWS Corpus Christi, TX

Current Version | Previous Version | Text Only | Print | Product List | Glossary On
Versions: 1 2 3 4 5 6 7 8 9 10 11 12 13 14 15 16 17 18 19 20 21 22 23 24 25 26 27 28 29 30 31 32 33 34 35 36 37 38 39 40 41 42 43 44 45 46 47 48 49 50
648
ASUS44 KCRP 220010
HRRCRP

SOUTH TEXAS REGIONAL WEATHER ROUNDUP
NATIONAL WEATHER SERVICE CORPUS CHRISTI TX
700 PM CDT MON MAY 21 2018


TXZ229>244-220100-
...CORPUS CHRISTI AREA OBSERVATIONS...

CITY           SKY/WX    TMP DP  RH WIND       PRES   REMARKS
CORPUS CHRISTI MOSUNNY   82  72  71 E16       29.88F
NAS CORPUS CHR MOSUNNY   82  74  76 SE16      29.88F
ROCKPORT       CLOUDY    79  72  79 SE12      29.89F
KINGSVILLE ARP FAIR      85  71  62 E12G18    29.88S HX  91
KINGSVILLE NAS MOSUNNY   84  69  60 SE14      29.88F
ALICE          SUNNY     84  68  58 SE16G23   29.88S
$$

...VICTORIA AREA OBSERVATIONS...

CITY           SKY/WX    TMP DP  RH WIND       PRES   REMARKS
PORT LAVACA    PTSUNNY   73  70  91 N10       29.94R
VICTORIA       CLOUDY    76  69  79 W5        29.93S
BEEVILLE       FAIR      84  66  53 SE14      29.89F
PLEASANTON     SUNNY     85  64  50 S7        29.91S
SAN ANTONIO    MOSUNNY   86  63  45 SE15G24   29.93S
$$

...LAREDO AREA OBSERVATIONS...

CITY           SKY/WX    TMP DP  RH WIND       PRES   REMARKS
LAREDO         MOSUNNY   93  64  38 SE16      29.85S HX  94
COTULLA        MOSUNNY   89  65  44 SE12      29.87S HX  91
DEL RIO        SUNNY     88  65  46 E13       29.85F HX  90
MCALLEN        SUNNY     89  68  49 SE13      29.88R HX  93
HEBBRONVILLE   PTSUNNY   86  65  49 SE12      29.89S
$$

...OTHER TEXAS OBSERVATIONS...

CITY           SKY/WX    TMP DP  RH WIND       PRES   REMARKS
BROWNSVILLE    FAIR      86  69  56 SE13      29.89R HX  90
HOUSTON        TSTM      72  71  97 SW8       29.99S FOG
COL. STATION   CLOUDY    72  71  97 NE3       29.98R
AUSTIN         PTSUNNY   81  69  67 SE13      29.95S
WACO           MOSUNNY   85  67  54 E6        29.95S
FORT WORTH     PTSUNNY   85  67  54 S10       29.93S
WICHITA FALLS  MOSUNNY   81  63  54 SE8       29.95F
LUBBOCK        MOSUNNY   79  56  45 SE14      29.99F
EL PASO        CLOUDY    90  43  19 E18G31    29.75F THUNDER
$$

...MARINE OBSERVATIONS...

STATION/POSITION TIME  SKY/WX   TEMP    WIND        PRES    VSBY  WAVE   SWELL
                                AIR SEA DIR/SP/G                  HT/PER HT/PER
                 (UTC)          (F)     (DEG/KT/KT) (MB)    (MI)  (FT/S) (FT/S)
PORT ARANSAS     0000            78 81  100/ 14/ 15 1012.1F
BUOY 90 E PORT A 2350            80 81   90/  8/ 12 1013.6F         3/ 7   2/ 7
BUOY 200 E PT IS 2350            81 81  100/  8/ 10 1013.2F         2/ 6   2/ 6
BUOY 15 E GALVES NOT AVBL
$$




USA.gov is the U.S. government's official web portal to all federal, state and local government web resources and services.